This is the latest recevied weather packets stored in our database for station/object KK4JIV-13. If no packets are shown the sender has not sent any weather packets the latest 1 day(s).
| Time | Temp. | Humidity | Pressure | Rain* | Wind** | Luminosity | Snow |
|---|---|---|---|---|---|---|---|
| 1778099303 | 32.78° C | 47% | 1014.9 hPa | 0 mm | - | 477 W/m² | - |
| 1778097787 | 33.33° C | 45% | 1015 hPa | 0 mm | - | 541 W/m² | - |
| 1778096272 | 32.78° C | 43% | 1015.2 hPa | 0 mm | - | 648 W/m² | - |
| 1778095968 | 33.33° C | 42% | 1015.3 hPa | 0 mm | - | 609 W/m² | - |
| 1778095058 | 32.78° C | 41% | 1015.3 hPa | 0 mm | - | 493 W/m² | - |
| 1778094148 | 34.44° C | 42% | 1015.4 hPa | 0 mm | - | 671 W/m² | - |
| 1778092026 | 33.89° C | 42% | 1015.5 hPa | 0 mm | - | 804 W/m² | - |
| 1778090511 | 33.33° C | 43% | 1016 hPa | 0 mm | - | 782 W/m² | - |
| 1778088385 | 32.78° C | 50% | 1016.1 hPa | 0 mm | - | 778 W/m² | - |
| 1778088076 | 32.22° C | 51% | 1016 hPa | 0 mm | - | 802 W/m² | - |
| 1778085648 | 32.22° C | 52% | 1016.7 hPa | 0 mm | - | 784 W/m² | - |
| 1778084125 | 31.67° C | 55% | 1016.9 hPa | 0 mm | - | 762 W/m² | - |
| 1778082915 | 30.56° C | 58% | 1016.9 hPa | 0 mm | - | 762 W/m² | - |
| 1778081504 | 30° C | 61% | 1017 hPa | 0 mm | - | 639 W/m² | - |
| 1778080898 | 29.44° C | 62% | 1016.9 hPa | 0 mm | - | 712 W/m² | - |
| 1778079990 | 28.89° C | 64% | 1017 hPa | 0 mm | - | 556 W/m² | - |
| 1778079384 | 28.89° C | 63% | 1016.8 hPa | 0 mm | - | 528 W/m² | - |
| 1778078778 | 28.33° C | 65% | 1016.5 hPa | 0 mm | - | 553 W/m² | - |
| 1778076662 | 26.67° C | 68% | 1016.6 hPa | 0 mm | - | 431 W/m² | - |
| 1778076359 | 26.67° C | 70% | 1016.5 hPa | 0 mm | - | 453 W/m² | - |
| 1778076056 | 26.67° C | 70% | 1016.5 hPa | 0 mm | - | 445 W/m² | - |
| 1778075753 | 26.67° C | 71% | 1016.6 hPa | 0 mm | - | 389 W/m² | - |
| 1778075449 | 25.56° C | 74% | 1016.5 hPa | 0 mm | - | 409 W/m² | - |
| 1778075146 | 25.56° C | 75% | 1016.4 hPa | 0 mm | - | 306 W/m² | - |
| 1778074539 | 25.56° C | 74% | 1016.5 hPa | 0 mm | - | 363 W/m² | - |
* Rain latest hour (hover to see other rain measurements)
** Current wind speed in m/s (hover to see current wind gust speed)